Location: *
(51.2167°N, 10.0667°E)
Time: 12:47:03
(UTC+00:00)

Lacrosse 5 - Pass Details

Date: 12 December 2019
Orbit: 717 x 722 km, 57.0° (Epoch: 10 January)

Event Time Altitude Azimuth Distance (km) Brightness Sun altitude
Rises 17:36:59 0° 183° (S) 3,110 5.3 -21.4°
Reaches altitude 10° 17:40:05 10° 164° (SSE) 2,195 4.3 -21.9°
Enters shadow 17:41:12 14° 152° (SSE) 1,959 3.9 -22.0°
